When you browse on this site, cookies collect data to enhance your experience and personalize the content and advertising you see.
Visit our Privacy Policy to learn more. By continuing to use the site, you agree to this use of cookies and data.

Hourly Weather Padilla

Today, 7 August, Friday

Time Temperature Precipitation Wind Pressure Humidity
00:00 +22°C° 0.1 mm 1 mps 676 mmHg 83%
01:00 +22°C° 0.1 mm 1 mps 676 mmHg 83%
02:00 +22°C° 0 mm 1 mps 676 mmHg 83%
03:00 +21°C° 0 mm 1 mps 675 mmHg 83%
04:00 +21°C° 0 mm 1 mps 675 mmHg 83%
05:00 +22°C° 0 mm 1 mps 675 mmHg 83%
06:00 +22°C° 0 mm 1 mps 676 mmHg 82%
07:00 +20°C° 0 mm 0 mps 676 mmHg 81%
08:00 +24°C° 0 mm 1 mps 677 mmHg 75%
09:00 +26°C° 0 mm 1 mps 677 mmHg 69%
10:00 +28°C° 0 mm 1 mps 678 mmHg 63%
11:00 +29°C° 0.1 mm 1 mps 678 mmHg 59%
12:00 +30°C° 0.1 mm 1 mps 678 mmHg 56%
13:00 +31°C° 0.1 mm 1 mps 678 mmHg 53%
14:00 +31°C° 0.1 mm 1 mps 677 mmHg 52%
15:00 +31°C° 0.1 mm 1 mps 677 mmHg 52%
16:00 +31°C° 0.1 mm 1 mps 676 mmHg 51%
17:00 +29°C° 0 mm 1 mps 676 mmHg 58%
18:00 +27°C° 0 mm 1 mps 676 mmHg 66%
19:00 +25°C° 0 mm 1 mps 676 mmHg 73%
20:00 +24°C° 0.1 mm 1 mps 676 mmHg 73%
21:00 +24°C° 0.1 mm 1 mps 677 mmHg 74%
22:00 +24°C° 0.1 mm 1 mps 677 mmHg 75%
23:00 +23°C° 0 mm 1 mps 677 mmHg 76%

Tomorrow, 8 August, Saturday

Time Temperature Precipitation Wind Pressure Humidity
00:00 +23°C° 0 mm 1 mps 677 mmHg 77%
01:00 +23°C° 0 mm 1 mps 676 mmHg 78%
02:00 +22°C° 0 mm 1 mps 676 mmHg 79%
03:00 +22°C° 0 mm 1 mps 676 mmHg 80%
04:00 +20°C° 0 mm 0 mps 676 mmHg 82%
05:00 +20°C° 0 mm 0 mps 676 mmHg 82%
06:00 +20°C° 0 mm 0 mps 677 mmHg 82%
07:00 +21°C° 0 mm 0 mps 677 mmHg 82%
08:00 +23°C° 0 mm 0 mps 678 mmHg 76%
09:00 +26°C° 0 mm 1 mps 678 mmHg 70%
10:00 +28°C° 0 mm 1 mps 679 mmHg 64%
11:00 +30°C° 0.1 mm 1 mps 679 mmHg 60%
12:00 +31°C° 0.1 mm 1 mps 678 mmHg 55%
13:00 +32°C° 0.1 mm 1 mps 678 mmHg 51%
14:00 +32°C° 0.2 mm 1 mps 678 mmHg 52%
15:00 +31°C° 0.2 mm 1 mps 677 mmHg 53%
16:00 +31°C° 0.2 mm 1 mps 676 mmHg 55%
17:00 +29°C° 0.1 mm 1 mps 676 mmHg 61%
18:00 +27°C° 0.1 mm 1 mps 676 mmHg 67%
19:00 +25°C° 0.1 mm 1 mps 676 mmHg 73%
20:00 +25°C° 0.1 mm 1 mps 677 mmHg 73%
21:00 +24°C° 0.1 mm 1 mps 677 mmHg 73%
22:00 +23°C° 0.1 mm 1 mps 678 mmHg 72%
23:00 +23°C° 0 mm 1 mps 677 mmHg 73%

Day after tomorrow, 9 August, Sunday

Time Temperature Precipitation Wind Pressure Humidity
00:00 +23°C° 0 mm 1 mps 677 mmHg 74%
01:00 +22°C° 0 mm 1 mps 677 mmHg 74%
02:00 +22°C° 0 mm 1 mps 676 mmHg 75%
03:00 +22°C° 0 mm 1 mps 676 mmHg 76%
04:00 +22°C° 0 mm 1 mps 676 mmHg 77%
05:00 +22°C° 0 mm 1 mps 676 mmHg 77%
06:00 +20°C° 0 mm 0 mps 676 mmHg 77%
07:00 +21°C° 0 mm 0 mps 677 mmHg 77%
08:00 +25°C° 0 mm 1 mps 677 mmHg 70%
09:00 +27°C° 0 mm 1 mps 678 mmHg 64%
10:00 +29°C° 0 mm 1 mps 678 mmHg 58%
11:00 +30°C° 0.2 mm 1 mps 678 mmHg 55%
12:00 +31°C° 0.2 mm 1 mps 678 mmHg 52%
13:00 +32°C° 0.2 mm 1 mps 678 mmHg 50%
14:00 +32°C° 0.5 mm 1 mps 677 mmHg 52%
15:00 +31°C° 0.5 mm 1 mps 676 mmHg 54%
16:00 +31°C° 0.5 mm 1 mps 676 mmHg 56%
17:00 +29°C° 0.4 mm 1 mps 675 mmHg 65%
18:00 +27°C° 0.4 mm 1 mps 675 mmHg 73%
19:00 +24°C° 0.4 mm 1 mps 675 mmHg 82%
20:00 +24°C° 0.4 mm 1 mps 676 mmHg 82%
21:00 +23°C° 0.4 mm 1 mps 676 mmHg 81%
22:00 +23°C° 0.4 mm 1 mps 677 mmHg 81%
23:00 +22°C° 0 mm 1 mps 676 mmHg 81%

10 August, Monday

Time Temperature Precipitation Wind Pressure Humidity
00:00 +22°C° 0 mm 1 mps 676 mmHg 81%
01:00 +22°C° 0 mm 1 mps 676 mmHg 80%
02:00 +22°C° 0 mm 1 mps 675 mmHg 80%
03:00 +21°C° 0 mm 1 mps 675 mmHg 80%
04:00 +21°C° 0 mm 1 mps 675 mmHg 80%
05:00 +22°C° 0 mm 1 mps 675 mmHg 80%
06:00 +22°C° 0 mm 1 mps 675 mmHg 79%
07:00 +20°C° 0 mm 0 mps 676 mmHg 78%
08:00 +25°C° 0 mm 1 mps 676 mmHg 72%
09:00 +27°C° 0 mm 1 mps 677 mmHg 66%
10:00 +29°C° 0 mm 1 mps 677 mmHg 60%
11:00 +30°C° 0 mm 1 mps 677 mmHg 56%
12:00 +31°C° 0 mm 1 mps 676 mmHg 52%
13:00 +33°C° 0 mm 1 mps 676 mmHg 47%
14:00 +32°C° 0.2 mm 1 mps 675 mmHg 49%
15:00 +32°C° 0.2 mm 1 mps 675 mmHg 51%
16:00 +31°C° 0.2 mm 2 mps 674 mmHg 54%
17:00 +29°C° 0.8 mm 1 mps 674 mmHg 64%
18:00 +27°C° 0.8 mm 1 mps 674 mmHg 75%
19:00 +24°C° 0.8 mm 1 mps 674 mmHg 86%
20:00 +24°C° 0.2 mm 1 mps 675 mmHg 86%
21:00 +23°C° 0.2 mm 1 mps 675 mmHg 86%
22:00 +23°C° 0.2 mm 1 mps 676 mmHg 86%
23:00 +22°C° 0 mm 1 mps 675 mmHg 86%

11 August, Tuesday

Time Temperature Precipitation Wind Pressure Humidity
00:00 +22°C° 0 mm 1 mps 675 mmHg 86%
01:00 +22°C° 0 mm 1 mps 674 mmHg 86%
02:00 +22°C° 0 mm 1 mps 674 mmHg 86%
03:00 +21°C° 0 mm 1 mps 674 mmHg 85%
04:00 +21°C° 0 mm 1 mps 674 mmHg 85%
05:00 +22°C° 0 mm 1 mps 674 mmHg 83%
06:00 +22°C° 0 mm 1 mps 675 mmHg 82%
07:00 +23°C° 0 mm 1 mps 675 mmHg 80%
08:00 +25°C° 0 mm 1 mps 675 mmHg 74%
09:00 +27°C° 0 mm 1 mps 676 mmHg 67%
10:00 +29°C° 0 mm 1 mps 677 mmHg 61%
11:00 +30°C° 0.1 mm 1 mps 676 mmHg 57%
12:00 +31°C° 0.1 mm 1 mps 675 mmHg 53%
13:00 +33°C° 0.1 mm 1 mps 675 mmHg 49%
14:00 +32°C° 0.3 mm 1 mps 674 mmHg 52%
15:00 +32°C° 0.3 mm 1 mps 674 mmHg 55%
16:00 +31°C° 0.3 mm 1 mps 673 mmHg 58%
17:00 +29°C° 1.2 mm 1 mps 673 mmHg 67%
18:00 +27°C° 1.2 mm 1 mps 674 mmHg 77%
19:00 +24°C° 1.2 mm 1 mps 674 mmHg 86%
20:00 +24°C° 0.6 mm 1 mps 674 mmHg 87%
21:00 +23°C° 0.6 mm 1 mps 675 mmHg 87%
22:00 +23°C° 0.6 mm 1 mps 675 mmHg 88%
23:00 +23°C° 0.3 mm 1 mps 675 mmHg 88%

12 August, Wednesday

Time Temperature Precipitation Wind Pressure Humidity
00:00 +22°C° 0.3 mm 1 mps 675 mmHg 88%
01:00 +22°C° 0.3 mm 1 mps 674 mmHg 88%
02:00 +22°C° 0.1 mm 1 mps 674 mmHg 88%
03:00 +20°C° 0.1 mm 0 mps 674 mmHg 88%
04:00 +20°C° 0.1 mm 0 mps 674 mmHg 88%
05:00 +20°C° 0.1 mm 0 mps 674 mmHg 87%
06:00 +20°C° 0.1 mm 0 mps 674 mmHg 86%
07:00 +21°C° 0.1 mm 0 mps 675 mmHg 86%
08:00 +23°C° 0 mm 0 mps 675 mmHg 80%
09:00 +27°C° 0 mm 1 mps 676 mmHg 74%
10:00 +28°C° 0 mm 1 mps 677 mmHg 68%
11:00 +29°C° 0.3 mm 1 mps 676 mmHg 66%
12:00 +30°C° 0.3 mm 1 mps 676 mmHg 64%
13:00 +31°C° 0.3 mm 1 mps 675 mmHg 61%
14:00 +30°C° 1 mm 1 mps 674 mmHg 62%
15:00 +30°C° 1 mm 1 mps 674 mmHg 63%
16:00 +30°C° 1 mm 1 mps 674 mmHg 65%
17:00 +28°C° 1.8 mm 1 mps 674 mmHg 73%
18:00 +26°C° 1.8 mm 1 mps 674 mmHg 82%
19:00 +24°C° 1.8 mm 1 mps 674 mmHg 90%
20:00 +24°C° 1 mm 1 mps 674 mmHg 90%
21:00 +23°C° 1 mm 1 mps 674 mmHg 90%
22:00 +23°C° 1 mm 1 mps 675 mmHg 90%
23:00 +23°C° 0.8 mm 1 mps 675 mmHg 90%
Show more